Tracking 29892 objects as of 21-Nov-2024
HD Live streaming from Space Station
objects crossing your sky now

SL-12 R/B(2)

Track SL-12 R/B(2) now!


NORAD ID: 25334
Int'l Code: 1998-028D
Perigee: 8,160.2 km
Apogee: 35,734.7 km
Inclination: 17.2 °
Period: 790.4 minutes
Semi major axis: 28318 km
RCS: 27.1647 m2 (large)
Launch date: May 7, 1998
Source: Commonwealth of Independent States (former USSR) (CIS)
Launch site: TYURATAM MISSILE AND SPACE COMPLEX (TTMTR)

Note: This is a ROCKET BODY
Your satellite tracking list
Your tracking list is empty




NASA's NSSDC Master Catalog

Two Line Element Set (TLE):
1 25334U 98028D   24324.93986363 -.00000123  00000-0  00000-0 0  9993
2 25334  17.2308  41.8319 4868638 256.6714  45.6720  1.82178925176584
Source of the keplerian elements: AFSPC